This is the latest recevied weather packets stored in our database for station/object KG4GJX. If no packets are shown the sender has not sent any weather packets the latest 10 day(s).
| Time | Temp. | Humidity | Pressure | Rain* | Wind** | Luminosity | Snow |
|---|---|---|---|---|---|---|---|
| 1777596277 | 13.89° C | 72% | 1013.2 hPa | 0 mm | - | - | - |
| 1777595614 | 14.44° C | 71% | 1012.8 hPa | 0 mm | - | - | - |
| 1777594952 | 15° C | 68% | 1012.8 hPa | 0 mm | - | - | - |
| 1777594289 | 15.56° C | 66% | 1012.8 hPa | 0 mm | - | - | - |
| 1777593627 | 16.67° C | 61% | 1012.8 hPa | 0 mm | - | - | - |
| 1777592964 | 17.22° C | 55% | 1012.5 hPa | 0 mm | - | - | - |
| 1777592302 | 17.78° C | 55% | 1012.5 hPa | 0 mm | - | - | - |
| 1777591640 | 18.33° C | 54% | 1012.5 hPa | 0 mm | - | - | - |
| 1777590977 | 18.33° C | 52% | 1012.5 hPa | 0 mm | - | - | - |
| 1777590315 | 18.33° C | 52% | 1012.5 hPa | 0 mm | - | - | - |
| 1777589652 | 18.89° C | 50% | 1012.5 hPa | 0 mm | - | - | - |
| 1777588990 | 18.89° C | 51% | 1012.5 hPa | 0 mm | - | - | - |
| 1777588328 | 19.44° C | 50% | 1012.5 hPa | 0 mm | - | - | - |
| 1777587665 | 19.44° C | 47% | 1012.5 hPa | 0 mm | - | - | - |
| 1777587003 | 20° C | 48% | 1012.5 hPa | 0 mm | - | - | - |
| 1777586341 | 20° C | 51% | 1012.5 hPa | 0 mm | - | - | - |
| 1777585678 | 20° C | 48% | 1012.8 hPa | 0 mm | - | - | - |
| 1777585016 | 20° C | 48% | 1012.5 hPa | 0 mm | - | - | - |
| 1777584354 | 19.44° C | 49% | 1012.5 hPa | 0 mm | - | - | - |
| 1777583691 | 19.44° C | 49% | 1012.5 hPa | 0 mm | - | - | - |
| 1777583028 | 20° C | 50% | 1012.5 hPa | 0 mm | - | - | - |
| 1777582365 | 20° C | 45% | 1012.8 hPa | 0 mm | - | - | - |
| 1777581703 | 20° C | 46% | 1012.8 hPa | 0 mm | - | - | - |
| 1777581040 | 20.56° C | 51% | 1012.8 hPa | 0 mm | - | - | - |
| 1777580378 | 20° C | 48% | 1012.8 hPa | 0 mm | - | - | - |
* Rain latest hour (hover to see other rain measurements)
** Current wind speed in m/s (hover to see current wind gust speed)